Zurück zum Katalog

COSMOS 1275 DEB

LostPO
NORAD 42173·DEBRIS·🇷🇺 Russia

Gestartet Jun 4, 1981 von Plesetsk Cosmodrome

Loading…

Nächste Überflüge (nächste 24 Stunden)

TLE

VeraltetSource: Space-Track

Epoche: Mar 27, 2024, 20:52 UTC

1 42173U 81053SM  24087.86959335  .00002047  00000-0  28207-2 0  9997
2 42173  83.2329 144.0815 0201038 317.8320  40.7503 13.50071039439056

Verfolge COSMOS 1275 DEB in Echtzeit mit AllMySat

Download on the App Store